{"data":{"norad_id":67470,"epoch":"2026-09-19T03:55:48.117504Z","epoch_age_seconds":187703,"freshness":"STALE","line1":"1 67470U 26008AB  26262.16375136  .00019445  00000+0  71395-3 0  9990","line2":"2 67470  42.9999 192.3881 0001425 267.1053  92.9636 15.27594638 39160","mean_motion":15.27594638,"eccentricity":0.0001425,"inclination_deg":42.9999,"raan_deg":192.3881,"arg_perigee_deg":267.1053,"mean_anomaly_deg":92.9636,"bstar":0.00071395,"rev_number":3916,"period_min":94.265845413369,"perigee_km":482.02755217891,"apogee_km":483.98297772442,"semimajor_km":6861.1422649517,"source":"CELESTRAK","updated_at":"2026-09-20T09:00:43.553907Z"}}